{"data":{"norad_id":63694,"intl_designator":"2025-086H","name":"HULIANWANG DIGUI-27","alt_names":[],"object_type":"PAYLOAD","status":"ACTIVE","operator":null,"country":"PRC","launch_date":"2025-04-28","launch_site_code":"WSC","launch_vehicle":null,"mission":null,"orbit_class":"UNKNOWN","rcs_meters":null,"size_class":null,"mass_kg":null,"dimensions":null,"purposes":[],"wikipedia_slug":null,"has_3d_model":false,"image_url":null,"decayed_at":null,"tle_current":{"epoch":"2026-09-21T22:19:42.176928Z","epoch_age_seconds":84177,"freshness":"FRESH","line1":"1 63694U 25086H   26264.93034927 -.00000143  00000+0 -36787-3 0  9999","line2":"2 63694  86.4972 280.4711 0001813  77.2367 282.8969 13.24413154 67661","mean_motion":13.24413154,"eccentricity":0.0001813,"inclination_deg":86.4972,"raan_deg":280.4711,"arg_perigee_deg":77.2367,"mean_anomaly_deg":282.8969,"bstar":-0.00036787,"rev_number":6766,"period_min":108.7274009361,"perigee_km":1166.5421069786,"apogee_km":1169.2783036953,"semimajor_km":7546.0472053369,"source":"CELESTRAK","updated_at":"2026-09-22T09:00:29.283691Z"}}}